Darstellungsparameter: Aktuell verwendete Einstellungen:
Skalierung der Graphiken ... ?
xyx+y,   Skalierungsfaktor:      Skalierung: Modus: x, Faktor: 1
Darstellungszeitraum ... ?
Vom - - bis: - -   Zeitraum: 23.04.2017 - 22.04.2020
Min/Max/Avg-Anzeige ... ?
Zeige MMA aktuell
Zeige MMA Monat
Zeige MMA alles
Zeige --A aktuell
Zeige --A Monat
Zeige --A alles
Keine MMA-Anzeige
MMA:
Keine MMA-Graphiken
MMA-Basis: 23.04.2017 - 22.04.2020
Quicknavigation für Darstellung... ?
Tage:      1T, 2T, 3T, 5T -1T -2T -3T -5T +1T +2T +3T +5T
Wochen: 1W, 2W, 3W -1W -2W -3W +1W +2W +3W
Monate: 1M, 3M, 6M -1M -3M -6M +1M +3M +6M
Jahre:    1J, 3J, 5J, 10J -1J -3J -5J -10J +1J +3J +5J +10J
Nutze für die Darstellung ... ?
Originaldaten oder ...
Mittelwerte Minima Maxima auf...
Stundenbasis Tagesbasis Wochenbasis
Monatsbasis Jahresbasis      Datenbasis: Mittelwerte auf Monatsbasis
Darstellen als:
Statistik (Auto) Statistik J:M      Darstellung:
Zur Graphik,    zurück zur Übersicht aller Sensoren.
 
Tabellarische Datenbersicht: ?
 
Sensor: Nr:Datum:Temp:Feuchte:
Aussen-T/F 1 01-04-2017 00:00:00 9.26135 C 23.3120 %
2 01-05-2017 00:00:00 16.19457 C 28.5164 %
3 01-06-2017 00:00:00 20.55944 C 24.3547 %
4 01-07-2017 00:00:00 20.21728 C 28.4570 %
5 01-08-2017 00:00:00 18.4762 C 33.8467 %
6 01-09-2017 00:00:00 13.44522 C 37.8506 %
7 01-10-2017 00:00:00 11.48467 C 37.2266 %
8 01-11-2017 00:00:00 5.59933 C 40.9328 %
9 01-12-2017 00:00:00 3.75323 C 39.8739 %
10 01-01-2018 00:00:00 5.36848 C 35.8409 %
11 01-02-2018 00:00:00 -1.17859 C 29.8779 %
12 01-03-2018 00:00:00 4.23042 C 31.3690 %
13 01-04-2018 00:00:00 13.19128 C 26.5381 %
14 01-05-2018 00:00:00 16.64449 C 26.4492 %
15 01-06-2018 00:00:00 19.40525 C 25.3293 %
16 01-07-2018 00:00:00 21.89989 C 23.1748 %
17 01-08-2018 00:00:00 20.62868 C 24.0022 %
18 01-09-2018 00:00:00 14.91236 C 29.7514 %
19 01-10-2018 00:00:00 10.54107 C 38.6585 %
20 01-11-2018 00:00:00 5.88289 C 45.9744 %
21 01-12-2018 00:00:00 4.73686 C 44.0385 %
22 01-01-2019 00:00:00 1.5978 C 43.1454 %
23 01-02-2019 00:00:00 3.65451 C 41.1675 %
24 01-03-2019 00:00:00 7.39063 C 33.8869 %
25 01-04-2019 00:00:00 10.58247 C 31.7733 %
Sensor: Nr:Datum:Temp:Feuchte:
Aussen-T/F 26 01-05-2019 00:00:00 12.38287 C 32.8107 %
27 01-06-2019 00:00:00 20.835 C 27.2494 %
28 01-07-2019 00:00:00 20.44202 C 26.3419 %
29 01-08-2019 00:00:00 19.51613 C 32.8091 %
30 01-09-2019 00:00:00 14.94058 C 25.1143 %
31 01-10-2019 00:00:00 11.2634 C 29.4072 %
32 01-11-2019 00:00:00 5.33172 C 33.1655 %
33 01-12-2019 00:00:00 4.23291 C 34.9906 %
34 01-01-2020 00:00:00 4.55685 C 35.5768 %
35 01-02-2020 00:00:00 6.22909 C 34.4696 %
36 01-03-2020 00:00:00 7.24858 C 33.5169 %
37 01-04-2020 00:00:00 11.81667 C 28.8633 %
Sensor: Nr:Datum:Temp:Feuchte:
G-T/H 1 01-04-2017 00:00:00 11.20314 C 60.0922 %
2 01-05-2017 00:00:00 15.89327 C 61.3444 %
3 01-06-2017 00:00:00 20.01789 C 59.0992 %
4 01-07-2017 00:00:00 20.4489 C 61.9742 %
5 01-08-2017 00:00:00 19.67435 C 66.9043 %
6 01-09-2017 00:00:00 15.81583 C 70.5583 %
7 01-10-2017 00:00:00 13.97215 C 75.4439 %
8 01-11-2017 00:00:00 10.18211 C 71.1925 %
9 01-12-2017 00:00:00 8.65464 C 70.0728 %
10 01-01-2018 00:00:00 9.24124 C 71.4843 %
11 01-02-2018 00:00:00 6.11414 C 63.0604 %
12 01-03-2018 00:00:00 7.82191 C 65.7965 %
13 01-04-2018 00:00:00 13.46933 C 63.2619 %
14 01-05-2018 00:00:00 16.5825 C 62.9239 %
15 01-06-2018 00:00:00 19.57993 C 64.3928 %
16 01-07-2018 00:00:00 21.75846 C 57.3052 %
17 01-08-2018 00:00:00 21.21202 C 59.8933 %
18 01-09-2018 00:00:00 17.25044 C 62.6903 %
19 01-10-2018 00:00:00 13.17796 C 70.6921 %
20 01-11-2018 00:00:00 10.29853 C 71.7781 %
21 01-12-2018 00:00:00 9.24784 C 72.2692 %
22 01-01-2019 00:00:00 7.73167 C 71.6374 %
23 01-02-2019 00:00:00 7.52868 C 74.0125 %
24 01-03-2019 00:00:00 9.54697 C 68.6915 %
25 01-04-2019 00:00:00 12.43878 C 60.5053 %
Sensor: Nr:Datum:Temp:Feuchte:
G-T/H 26 01-05-2019 00:00:00 14.02705 C 62.4539 %
27 01-06-2019 00:00:00 20.29078 C 60.8711 %
28 01-07-2019 00:00:00 20.63543 C 57.0358 %
29 01-08-2019 00:00:00 20.06379 C 62.0594 %
30 01-09-2019 00:00:00 16.70926 C 62.8330 %
31 01-10-2019 00:00:00 14.34293 C 73.1018 %
32 01-11-2019 00:00:00 10.35029 C 72.2176 %
33 01-12-2019 00:00:00 9.18533 C 73.1608 %
34 01-01-2020 00:00:00 8.94989 C 73.4400 %
35 01-02-2020 00:00:00 9.65747 C 72.0675 %
36 01-03-2020 00:00:00 10.07904 C 68.2814 %
37 01-04-2020 00:00:00 11.99785 C 60.1761 %

Maximal/Minimal-Werte vom 23.04.2017 - 22.04.2020

Sensor Min Max Avg
Temp
(Aussen-T/F)
-12.4 °C
27-02-2018  07:25:17
46.2 °C
19-06-2017  18:30:17
11.21 °C
Feuchte
(Aussen-T/F)
20 %
23-04-2017  00:08:16
78 %
23-11-2017  06:30:17
32.62 %
Temp
(G-T/H)
2 °C
27-02-2018  07:01:17
29.7 °C
26-07-2018  16:25:17
13.64 °C
Feuchte
(G-T/H)
25 %
29-06-2019  18:04:17
85 %
16-10-2017  15:03:17
66.63 %

Die Daten stammen von einer Davis Vantage Pro 2 Wetter-Station und werden unter Linux mit der Software wview2wettercgi und aufbereitet. Alle Angaben erfolgen ohne Gewähr für ihre Vollständigkeit oder Richtigkeit.
Kontakt: Rainer Krienke krienke@uni-koblenz.de . Meine Webseiten an der Uni Koblenz oder privat.
Version: $Revision: 0.78 $